SERIAL,TIME,MODEL,SN(OPTODE),OXYGEN,SATURATION,TEMPERATURE,CALPHASE,TCPHASE,C1RPH,C2RPH,C1AMP,C2AMP,RAWTEMP,CHECK
2,1313646699,4330,355,197.6905059814453000,60.4797286987304700,13.2599697113037110,34.6002807617187500,36.6219787597656250,39.9680786132812500,3.3461000919342040,754.8167724609375000,677.9901123046875000,413.4814147949219000,63947
2,1313650296,4330,355,196.9373931884765600,60.2153015136718750,13.2346296310424800,34.6592292785644500,36.6795692443847660,40.0345191955566400,3.3549420833587646,756.2880859375000000,678.2537841796875000,414.2955932617187500,9676
2,1313653896,4330,355,195.3513031005859400,59.7301101684570300,13.2344703674316400,34.7574310302734400,36.7755203247070300,40.1276893615722660,3.3521649837493896,758.6785278320312000,678.2321777343750000,414.3008117675781000,1334
2,1313657496,4330,355,195.2628021240234400,59.7012290954589840,13.2330799102783200,34.7636604309082000,36.7816085815429700,40.1477203369140600,3.3661119937896730,758.8574218750000000,678.2261962890625000,414.3453979492187500,49025
2,1313661096,4330,355,195.3050994873047000,59.7056007385253900,13.2266597747802730,34.7645111083984400,36.7824287414550800,40.1486511230468750,3.3662190437316895,758.7271118164062000,678.2498168945312000,414.5519104003906000,50448
2,1313664696,4330,355,198.6136932373047000,60.7217903137207000,13.2301502227783200,34.5589218139648440,36.5815696716308600,39.9442596435546900,3.3626859188079834,753.2066040039062000,678.1616821289062000,414.4396972656250000,34007
2,1313668296,4330,355,198.0213012695312500,60.5541801452636700,13.2401399612426760,34.5904808044433600,36.6124114990234400,39.9606513977050800,3.3482360839843750,754.2139282226562000,678.0706176757812000,414.1187133789062500,11426
2,1313671896,4330,355,196.5137939453125000,60.1022415161132800,13.2469301223754880,34.6791000366210940,36.6989898681640600,40.0564689636230500,3.3574829101562500,756.4965820312500000,678.0828247070312000,413.9006042480469000,8447
2,1313675496,4330,355,194.9402008056640600,59.6131286621093750,13.2410297393798830,34.7801589965820300,36.7977218627929700,40.1518898010253900,3.3541638851165770,759.2670898437500000,678.0905761718750000,414.0900878906250000,54727
2,1313679096,4330,355,197.9255065917968800,60.5238304138183600,13.2393703460693360,34.5964393615722660,36.6182289123535160,39.9640388488769500,3.3458099365234375,754.4121093750000000,678.1417236328125000,414.1434020996094000,37121
2,1313682696,4330,355,196.0854949951172000,59.9643096923828100,13.2417097091674800,34.7081794738769500,36.7274017333984400,40.0733489990234400,3.3459470272064210,757.1618041992188000,678.0416870117188000,414.0681152343750000,36412
2,1313686296,4330,355,193.4246978759765600,59.1501197814941400,13.2413396835327150,34.8741989135742200,36.8895988464355500,40.2379302978515600,3.3483281135559080,761.6032714843750000,678.0241699218750000,414.0801086425781000,43466
2,1313689896,4330,355,191.9002990722656200,58.6825294494628900,13.2402601242065430,34.9715309143066400,36.9846992492675800,40.3311882019043000,3.3464970588684080,764.1732788085938000,678.0369262695312000,414.1149902343750000,63386
2,1313693496,4330,355,192.8302001953125000,58.9672889709472660,13.2405700683593750,34.9120712280273440,36.9266090393066400,40.2704010009765600,3.3437960147857666,762.5667114257812000,677.9998779296875000,414.1048889160156000,15030
2,1313697096,4330,355,191.1784973144531200,58.4623107910156250,13.2406301498413090,35.0167617797851560,37.0288810729980500,40.3716316223144500,3.3427429199218750,765.3588256835938000,677.9780883789062000,414.1030883789062500,30872
2,1313700696,4330,355,189.6470947265625000,57.9935111999511700,13.2402601242065430,35.1145210266113300,37.1244010925293000,40.4682197570800800,3.3438189029693604,767.8956298828125000,678.0057983398438000,414.1148071289062500,20818
2,1313704296,4330,355,188.9078063964843800,57.7673301696777340,13.2401895523071290,35.1624603271484400,37.1712303161621100,40.5022315979003900,3.3309938907623290,769.0634765625000000,677.9700927734375000,414.1170959472656000,40304
2,1313707896,4330,355,190.1284942626953000,58.1371116638183600,13.2374897003173830,35.0855789184570300,37.0961189270019500,40.4349403381347660,3.3388140201568604,766.9512939453125000,677.9020996093750000,414.2037048339844000,44613
2,1313711496,4330,355,196.5348052978515600,60.0903892517089840,13.2332801818847660,34.6853218078613300,36.7050704956054700,40.0382499694824200,3.3331830501556396,756.5872192382812000,677.9871215820312000,414.3391113281250000,35845
2,1313715096,4330,355,191.2097015380859400,58.4642486572265600,13.2348098754882810,35.0174407958984400,37.0295486450195300,40.3798789978027340,3.3503339290618896,765.0648803710938000,677.8992919921875000,414.2900085449219000,35748
2,1313718696,4330,355,191.9582977294922000,58.6892890930175800,13.2318696975708000,34.9714584350585940,36.9846305847168000,40.3302001953125000,3.3455729484558105,763.8909301757812000,677.9108886718750000,414.3841857910156000,24258
2,1313722296,4330,355,195.7375030517578000,59.8389205932617200,13.2275199890136720,34.7374305725097660,36.7559700012207000,40.1070098876953100,3.3510360717773438,757.6052856445312000,677.9801025390625000,414.5242004394531000,33054
2,1313725896,4330,355,198.0852966308593800,60.5745887756347660,13.2407903671264650,34.5861015319824200,36.6081314086914060,39.9487495422363300,3.3406140804290770,753.6674194335938000,677.8261718750000000,414.0978088378906000,20491
2,1313729496,4330,355,195.0915069580078000,59.6638107299804700,13.2443399429321290,34.7684402465820300,36.7862815856933600,40.1387481689453100,3.3524699211120605,758.3994140625000000,677.7742919921875000,413.9837951660156000,31003
2,1313733096,4330,355,194.1896972656250000,59.3841590881347660,13.2414197921752930,34.8260192871093750,36.8425292968750000,40.1883506774902340,3.3458249568939210,760.0203247070312000,677.8048706054688000,414.0773925781250000,18476
2,1313736696,4330,355,192.9365997314453000,58.9928703308105500,13.2352504730224610,34.9080696105957000,36.9226989746093750,40.2669486999511700,3.3442540168762207,762.0814819335938000,677.8079833984375000,414.2756958007812500,49788
2,1313740296,4330,355,191.5030059814453000,58.5522918701171900,13.2335500717163090,34.9993896484375000,37.0119094848632800,40.3558502197265600,3.3439409732818604,764.5828247070312000,677.8090209960938000,414.3304138183594000,62056
2,1313743896,4330,355,191.1369934082031200,58.4347991943359400,13.2292900085449220,35.0252113342285160,37.0371398925781250,40.3806190490722660,3.3434751033782960,765.1337280273438000,677.8336791992188000,414.4674072265625000,8289
2,1313747496,4330,355,197.7014007568359400,60.4735908508300800,13.2529602050781250,34.6036491394043000,36.6252708435058600,39.9780311584472660,3.3527529239654540,754.2767944335938000,677.7869873046875000,413.7067871093750000,65055
2,1313751096,4330,355,194.3043975830078000,59.4435081481933600,13.2597503662109380,34.8099098205566400,36.8267898559570300,40.1809501647949200,3.3541638851165770,759.5822753906250000,677.6677856445312000,413.4884033203125000,62997
2,1313754696,4330,355,194.5973968505859400,59.5326309204101560,13.2593803405761720,34.7921600341796900,36.8094596862793000,40.1579589843750000,3.3485031127929688,759.3206787109375000,677.7523193359375000,413.5003967285156000,46355
2,1313758296,4330,355,196.7319946289062500,60.1887893676757800,13.2616901397705080,34.6585502624511700,36.6789093017578100,40.0223808288574200,3.3434751033782960,755.5612182617188000,677.5405883789062000,413.4263000488281000,14922
2,1313761896,4330,355,191.5733947753906200,58.6105804443359400,13.2617197036743160,34.9807891845703100,36.9937400817871100,40.3345794677734400,3.3408360481262207,764.1135253906250000,677.6226196289062000,413.4252014160156000,52608
2,1313765496,4330,355,191.5971984863281200,58.6159591674804700,13.2602701187133790,34.9800491333007800,36.9930191040039060,40.3327217102050800,3.3396990299224854,764.0792846679688000,677.6182861328125000,413.4719848632812500,44727
2,1313769096,4330,355,196.5655975341797000,60.0898094177246100,13.2258100509643550,34.6865997314453100,36.7063217163085940,40.0494194030761700,3.3431019783020020,756.0983886718750000,677.6909179687500000,414.5790100097656000,46120
2,1313772696,4330,355,197.2444000244140600,60.2949600219726560,13.2240695953369140,34.6458282470703100,36.6664886474609400,40.0127983093261700,3.3463129997253420,754.9716796875000000,677.6896972656250000,414.6350097656250000,12093
2,1313776296,4330,355,194.0693969726562500,59.3275718688964840,13.2264299392700200,34.8414497375488300,36.8576011657714840,40.1982002258300800,3.3405909538269043,760.0706176757812000,677.6768188476562000,414.5591125488281000,24866
2,1313779896,4330,355,196.9465026855468800,60.2219200134277340,13.2375001907348630,34.6573295593261700,36.6777191162109400,40.0179595947265600,3.3402400016784670,755.3303833007812000,677.6226196289062000,414.2036132812500000,24740
2,1313783496,4330,355,190.4965057373047000,58.2495689392089840,13.2374095916748050,35.0616493225097660,37.0727386474609400,40.4097595214843750,3.3370211124420166,765.9827270507812000,677.5772705078125000,414.2062072753906000,29548
2,1313787096,4330,355,190.3011932373047000,58.1866111755371100,13.2349195480346680,35.0752601623535160,37.0860404968261700,40.4231910705566400,3.3371429443359375,766.3522949218750000,677.6088256835938000,414.2862854003906000,23200
2,1313790696,4330,355,197.4595031738281200,60.4080009460449200,13.2591896057128900,34.6147994995117200,36.6361694335937500,39.9848289489746100,3.3486630916595460,754.2797241210938000,677.5878295898438000,413.5065917968750000,52098
2,1313794296,4330,355,194.1278076171875000,59.3904304504394500,13.2604703903198240,34.8209495544433600,36.8375816345214840,40.1765594482421900,3.3389821052551270,759.6082153320312000,677.4725952148438000,413.4653930664062500,45343
2,1313797896,4330,355,194.8871002197265600,59.6230506896972660,13.2607297897338870,34.7733917236328100,36.7911109924316400,40.1411399841308600,3.3500289916992188,758.4290161132812000,677.4812011718750000,413.4572143554687500,55337
2,1313801496,4330,355,190.9158020019531200,58.4042701721191400,13.2577800750732420,35.0249710083007800,37.0369110107421900,40.3812294006347660,3.3443150520324707,764.9600219726562000,677.4371948242188000,413.5517883300781000,49275
2,1313805096,4330,355,189.4860992431640600,57.9579696655273440,13.2508697509765620,35.1196403503418000,37.1293983459472660,40.4810485839843750,3.3516459465026855,767.3308715820312000,677.4661254882812000,413.7739868164062500,51433
2,1313808696,4330,355,192.3704071044922000,58.8324890136718750,13.2450103759765620,34.9386215209960940,36.9525489807128900,40.2972106933593750,3.3446660041809080,762.5175781250000000,677.4979858398438000,413.9623107910156000,30362
2,1313812296,4330,355,194.8795928955078000,59.5667686462402340,13.2200698852539060,34.7944488525390600,36.8116912841796900,40.1548004150390600,3.3431088924407960,758.6804809570312000,677.5900268554688000,414.7636108398437500,50026
2,1313815896,4330,355,194.4418029785156200,59.4287796020507800,13.2169103622436520,34.8230209350585940,36.8395996093750000,40.1845893859863300,3.3449859619140625,759.3374023437500000,677.5695800781250000,414.8651123046875000,43280
2,1313819496,4330,355,192.0948028564453000,58.7120094299316400,13.2173500061035160,34.9701881408691400,36.9833793640136700,40.3263511657714840,3.3429720401763916,763.1942749023438000,677.5352783203125000,414.8510131835937500,13044
2,1313823096,4330,355,194.7342987060547000,59.5355491638183600,13.2300100326538090,34.7980194091796900,36.8151817321777340,40.1586303710937500,3.3434519767761230,758.7595825195312000,677.4526977539062000,414.4440002441406000,7679
2,1313826696,4330,355,192.9474945068359400,58.9875717163085940,13.2287101745605470,34.9107284545898440,36.9252891540527340,40.2687187194824200,3.3434300422668457,761.7636718750000000,677.4996948242188000,414.4858093261719000,36767
2,1313830296,4330,355,188.7397003173828000,57.6944007873535160,13.2234401702880860,35.1816787719726560,37.1900100708007800,40.5389289855957000,3.3489151000976562,768.7120971679688000,677.4713745117188000,414.6553039550781000,31679
2,1313833896,4330,355,198.0825958251953000,60.5905494689941400,13.2531900405883790,34.5801582336425800,36.6023292541503900,39.9366912841796900,3.3343660831451416,753.2141723632812000,677.3886718750000000,413.6991882324219000,27596
2,1313837496,4330,355,195.2919006347656200,59.7476615905761700,13.2612800598144530,34.7479400634765600,36.7662391662597660,40.0969505310058600,3.3307108879089355,757.7678222656250000,677.3087158203125000,413.4393920898437500,31981
2,1313841096,4330,355,187.5989990234375000,57.3939514160156250,13.2611703872680660,35.2358589172363300,37.2429504394531250,40.5831794738769500,3.3402249813079834,770.2515258789062000,677.2703247070312000,413.4429931640625000,10361
2,1313844696,4330,355,193.3459014892578000,59.1262817382812500,13.2415399551391600,34.8790893554687500,36.8943786621093750,40.2416381835937500,3.3472599983215330,760.8430175781250000,677.3715820312500000,414.0739135742187500,27279
2,1313848296,4330,355,195.3856964111328000,59.7407493591308600,13.2345504760742190,34.7553405761718750,36.7734794616699200,40.1204414367675800,3.3469619750976562,757.3842163085938000,677.3363037109375000,414.2981872558594000,16855
2,1313851896,4330,355,191.8341064453125000,58.6589889526367200,13.2377195358276370,34.9766006469726560,36.9896507263183600,40.3344688415527340,3.3448181152343750,763.3212280273438000,677.3710937500000000,414.1964111328125000,25817
2,1313855496,4330,355,195.1096038818359400,59.6582984924316400,13.2360200881958000,34.7719116210937500,36.7896690368652340,40.1395606994628900,3.3498919010162354,757.8552246093750000,677.3239135742188000,414.2511901855469000,43513
2,1313859096,4330,355,193.6656036376953000,59.2251396179199200,13.2423696517944340,34.8587684631347660,36.8745307922363300,40.2160491943359400,3.3415219783782960,760.1665039062500000,677.2078247070312000,414.0469055175781000,46360
2,1313862696,4330,355,188.2044067382812500,57.5562515258789060,13.2433204650878900,35.2063102722168000,37.2140808105468750,40.5568809509277340,3.3428039550781250,769.2310180664062000,677.1929931640625000,414.0165100097656000,12994
2,1313866296,4330,355,186.3515014648437500,56.9837303161621100,13.2386703491210940,35.3291511535644500,37.3340911865234400,40.6748199462890600,3.3407289981842040,772.4188232421875000,677.2086181640625000,414.1658935546875000,10965
2,1313869896,4330,355,184.7749938964843800,56.5003700256347660,13.2376604080200200,35.4333190917968750,37.4358711242675800,40.7649116516113300,3.3290410041809080,775.2272949218750000,677.2379760742188000,414.1983032226562500,39542
2,1313873496,4330,355,183.0399932861328000,55.9696617126464840,13.2375297546386720,35.5480003356933600,37.5479087829589840,40.8819618225097660,3.3340449333190920,778.0703735351562000,677.2214965820312000,414.2025146484375000,58105
2,1313877096,4330,355,192.9797973632812500,59.0226211547851560,13.2478599548339840,34.8986282348632800,36.9134788513183600,40.2593193054199200,3.3458480834960938,761.1207885742188000,677.1929931640625000,413.8706054687500000,29361
2,1313880696,4330,355,187.3121948242187500,57.2908897399902340,13.2491703033447270,35.2611885070800800,37.2676887512207000,40.6094207763671900,3.3417279720306396,770.6270751953125000,677.1007080078125000,413.8284912109375000,60357
2,1313884296,4330,355,181.5139007568359400,55.5183410644531250,13.2499103546142580,35.6444015502929700,37.6420898437500000,40.9816589355468750,3.3395690917968750,780.6843261718750000,677.1270141601562000,413.8045959472656000,12788
2,1313887896,4330,355,186.6457061767578000,57.0853614807128900,13.2478704452514650,35.3054008483886700,37.3108901977539060,40.6566886901855500,3.3458020687103270,771.6754150390625000,677.1168212890625000,413.8703918457031000,57800
2,1313891496,4330,355,180.7064056396484400,55.2673683166503900,13.2466602325439450,35.7003707885742200,37.6967811584472660,41.0329895019531250,3.3362119197845460,781.9630737304688000,677.0889892578125000,413.9092102050781000,15178
2,1313895096,4330,355,184.5780029296875000,56.4454803466796900,13.2419204711914060,35.4438705444335940,37.4461708068847660,40.7887382507324200,3.3425669670104980,775.2465209960938000,677.0642700195312000,414.0614013671875000,31223
2,1313898696,4330,355,191.5773925781250000,58.5818405151367200,13.2387599945068360,34.9919395446777340,37.0046386718750000,40.3496208190918000,3.3449859619140625,763.5084228515625000,677.1649780273438000,414.1630859375000000,47914
2,1313902296,4330,355,193.6325988769531200,59.2202110290527340,13.2462596893310550,34.8584518432617200,36.8742103576660160,40.2227897644043000,3.3485789299011230,759.9530029296875000,677.0985717773438000,413.9219055175781000,17331
2,1313905896,4330,355,193.8645019531250000,59.3049697875976560,13.2567501068115230,34.8385696411132800,36.8548011779785160,40.1990203857421900,3.3442230224609375,759.3660888671875000,676.9628295898438000,413.5848999023437500,46996
2,1313909496,4330,355,190.1632995605468800,58.1826400756835940,13.2643995285034180,35.0696296691894500,37.0805397033691400,40.4300498962402340,3.3495180606842040,765.3378906250000000,676.8936767578125000,413.3389892578125000,63699
2,1313913096,4330,355,189.4134979248047000,57.9526786804199200,13.2639598846435550,35.1175308227539060,37.1273384094238300,40.4703407287597660,3.3429949283599854,766.7449951171875000,676.8873291015625000,413.3532104492187500,57510
2,1313916696,4330,355,188.5634002685547000,57.6936607360839840,13.2648096084594730,35.1716995239257800,37.1802711486816400,40.5182991027832000,3.3380279541015625,768.0308227539062000,676.8167724609375000,413.3259887695312500,48187
2,1313920296,4330,355,181.2476043701172000,55.4554100036621100,13.2648897171020500,35.6543807983398440,37.6518402099609400,40.9895782470703100,3.3377380371093750,780.6536254882812000,676.8267822265625000,413.3234863281250000,48276
2,1313923896,4330,355,181.9929046630859400,55.6829299926757800,13.2644996643066400,35.6047897338867200,37.6033897399902340,40.9449005126953100,3.3415069580078125,779.3889770507812000,676.7929077148438000,413.3357849121094000,60059
2,1313927496,4330,355,185.6548004150390600,56.8028488159179700,13.2641096115112300,35.3615303039550800,37.3657188415527340,40.7021217346191400,3.3363950252532960,772.9567260742188000,676.7493286132812000,413.3483886718750000,18447
2,1313931096,4330,355,185.9804992675781200,56.8971900939941400,13.2599296569824220,35.3424110412597660,37.3470497131347660,40.6814117431640600,3.3343660831451416,772.6337280273438000,676.8698730468750000,413.4826965332031000,3726
2,1313934696,4330,355,189.9866027832031200,58.1067314147949200,13.2475204467773440,35.0892601013183600,37.0997200012207000,40.4433708190918000,3.3436510562896730,765.7747192382812000,676.8961791992188000,413.8817138671875000,25691
2,1313938296,4330,355,190.9745941162109400,58.3955802917480500,13.2372598648071290,35.0315513610839840,37.0433311462402340,40.3766593933105500,3.3333280086517334,764.2783813476562000,676.9655151367188000,414.2112121582031000,42653
2,1313941896,4330,355,186.9174041748047000,57.1497383117675800,13.2331495285034180,35.2950592041015600,37.3007888793945300,40.6454582214355500,3.3446729183197020,771.0952148437500000,676.9545288085938000,414.3432922363281000,8293
2,1313945496,4330,355,194.5377960205078000,59.4817886352539060,13.2347898483276370,34.8081092834472660,36.8250312805175800,40.1671104431152340,3.3420870304107666,758.4807128906250000,676.9965209960938000,414.2907104492187500,27057
2,1313949096,4330,355,195.3069000244140600,59.7320594787597660,13.2461395263671880,34.7546005249023440,36.7727508544921900,40.1119194030761700,3.3391718864440920,756.9755249023438000,676.8643188476562000,413.9259033203125000,30431
2,1313952696,4330,355,193.0411071777343800,59.0512008666992200,13.2553300857543950,34.8913993835449200,36.9063987731933600,40.2408409118652340,3.3344419002532960,760.5341796875000000,676.7888793945312000,413.6307067871094000,3453
2,1313956296,4330,355,189.1432037353515600,57.8632507324218750,13.2587099075317380,35.1375007629394500,37.1468505859375000,40.4733581542968750,3.3265080451965330,767.2191162109375000,676.7395019531250000,413.5217895507812500,26179
2,1313959896,4330,355,183.0619964599609400,55.9900588989257800,13.2484798431396480,35.5411491394043000,37.5412101745605500,40.8736686706543000,3.3324580192565920,777.6245727539062000,676.8933105468750000,413.8505859375000000,57363
2,1313963496,4330,355,193.4965972900390600,59.1823310852050800,13.2491102218627930,34.8660812377929700,36.8816719055175800,40.2287101745605500,3.3470458984375000,759.8140258789062000,676.7902221679688000,413.8304138183594000,47777
2,1313967096,4330,355,195.6970977783203000,59.8745689392089840,13.2634801864624020,34.7214813232421900,36.7403907775878900,40.0758514404296900,3.3354570865631104,756.0778198242188000,676.5922851562500000,413.3687133789062500,5224
2,1313970696,4330,355,191.3923034667968800,58.5615806579589840,13.2666301727294920,34.9902191162109400,37.0029487609863300,40.3486595153808600,3.3457109928131104,762.9329833984375000,676.5690917968750000,413.2673034667969000,31963
2,1313974296,4330,355,190.5722045898437500,58.3085899353027340,13.2650604248046880,35.0428581237793000,37.0543785095214840,40.3939781188964840,3.3396000862121580,764.4074707031250000,676.6378784179688000,413.3179931640625000,53941
2,1313977896,4330,355,187.9355010986328000,57.4809494018554700,13.2487201690673830,35.2208900451660160,37.2283210754394500,40.5584907531738300,3.3301620483398438,769.1904296875000000,676.6978149414062000,413.8428039550781000,31033
2,1313981496,4330,355,186.9880065917968800,57.1809692382812500,13.2407102584838870,35.2867507934570300,37.2926597595214840,40.6388511657714840,3.3461909294128420,770.7650756835938000,676.7537841796875000,414.1004028320312500,16357
2,1313985096,4330,355,184.1307983398437500,56.3086090087890600,13.2418298721313480,35.4735488891601560,37.4751701354980500,40.8254699707031250,3.3502960205078125,775.6437988281250000,676.7781982421875000,414.0643005371094000,9965
2,1313988696,4330,355,190.3417053222656200,58.2093887329101560,13.2429399490356450,35.0687713623046900,37.0797004699707000,40.4233703613281250,3.3436739444732666,765.0471801757812000,676.7288208007812000,414.0288085937500000,40370
2,1313992296,4330,355,181.0478973388672000,55.3702201843261700,13.2453899383544920,35.6784706115722660,37.6753807067871100,41.0189399719238300,3.3435590267181396,780.9185180664062000,676.6821899414062000,413.9500122070312500,56656
2,1313995896,4330,355,186.7252960205078000,57.1094703674316400,13.2476701736450200,35.2999000549316400,37.3055114746093750,40.6510505676269500,3.3455350399017334,770.8983764648438000,676.6549072265625000,413.8768005371094000,41057
2,1313999496,4330,355,190.5986938476562500,58.2920684814453100,13.2460803985595700,35.0508193969726560,37.0621604919433600,40.4053802490234400,3.3432240486145020,764.6234741210938000,676.7009277343750000,413.9277954101562500,40130
2,1314003096,4330,355,182.8211975097656200,55.9128608703613300,13.2456302642822270,35.5588111877441400,37.5584716796875000,40.9070396423339840,3.3485720157623290,777.7451782226562000,676.6389770507812000,413.9424133300781000,42172
2,1314003656,4330,355,182.7850036621093800,55.9027786254882800,13.2464399337768550,35.5606803894043000,37.5602989196777340,40.9052581787109400,3.3449630737304688,777.6442871093750000,676.3687133789062000,413.9161071777344000,14837
2,1314003975,4330,355,197.9221954345703000,60.5533218383789060,13.2619895935058600,34.5850296020507800,36.6070899963378900,39.9583015441894500,3.3512120246887207,752.3217773437500000,676.5191040039062000,413.4164123535156000,46632
2,1314004183,4330,355,198.3544006347656200,60.6819305419921900,13.2593202590942380,34.5601997375488300,36.5828208923339840,39.9238395690918000,3.3410189151763916,751.8671264648438000,676.6184082031250000,413.5022888183594000,30262